Regional Weather Roundup
Issued by NWS

Home | Current Version | Previous Version | Graphics & Text | Print | Product List | Glossary Off
Versions: 1 2 3 4 5 6 7 8 9 10 11 12 13 14 15 16 17 18 19 20 21 22 23 24 25 26 27 28 29 30 31 32 33 34 35 36 37 38 39 40 41 42 43 44 45 46 47 48 49 50

000
ASUS43 KMKX 241921
RWRWI

WISCONSIN REGIONAL WEATHER ROUNDUP
NATIONAL WEATHER SERVICE MILWAUKEE/SULLIVAN WI
200 PM CDT THU APR 24 2014

NOTE: "FAIR" INDICATES FEW OR NO CLOUDS BELOW 12,000 FEET WITH NO
SIGNIFICANT WEATHER AND/OR OBSTRUCTIONS TO VISIBILITY.

WIZ001-002-006>008-014>016-023>028-242000-
NORTHWEST WISCONSIN

CITY           SKY/WX    TMP DP  RH WIND       PRES   REMARKS
SUPERIOR ARPT  LGT SNOW  32  32  99 NE14      29.82F WCI  22
ASHLAND        LGT RAIN  36  36 100 E9        29.87F FOG     WCI  29
HAYWARD        LGT SNOW  35  33  92 E9        29.78F FOG     WCI  28
SIREN          RAIN      39  38  97 E5        29.75F
RICE LAKE      LGT RAIN  40  38  93 E8        29.75F WCI  35
LADYSMITH      LGT RAIN  39  37  93 E12G23    29.78F WCI  32
EAU CLAIRE     RAIN      43  41  93 SE9       29.73F
MENOMONIE      DRIZZLE   42  42  99 E10       29.73F
NEW RICHMOND   DRIZZLE   41  41  99 E8        29.71F
OSCEOLA        RAIN      42  41  98 E8        29.74F
$$

WIZ003>005-009-010-017-018-242000-
NORTH CENTRAL WISCONSIN

CITY           SKY/WX    TMP DP  RH WIND       PRES   REMARKS
WOODRUFF       LGT SNOW  37  34  91 E10G16    29.85F WCI  29
RHINELANDER    LGT SNOW  33  32  96 E14       29.85F FOG     WCI  23
EAGLE RIVER    LGT SNOW  34  33  99 SE10      29.88F WCI  26
LAND O LAKES   LGT SNOW  35  34  96 SE13      29.90F WCI  27
PHILLIPS       LGT RAIN  35  33  94 E12G21    29.80F WCI  26
TOMAHAWK       LGT RAIN  35  33  94 E8        29.83F WCI  29
MEDFORD        LGT RAIN  38  36  94 E15G23    29.77F WCI  29
MERRILL        LGT RAIN  38  37  94 E13G18    29.80F WCI  30
$$

WIZ029-030-035-036-043>047-242000-
CENTRAL WISCONSIN

CITY           SKY/WX    TMP DP  RH WIND       PRES   REMARKS
WAUSAU         LGT RAIN  40  38  93 E21G31    29.79F WCI  30
MOSINEE        LGT RAIN  39  39 100 E17G29    29.80F WCI  30
MARSHFIELD     LGT RAIN  42  38  85 SE21G29   29.76F FOG
STEVENS POINT  RAIN      40  38  89 E16G25    29.82F WCI  32
WAUPACA        CLOUDY    45  37  76 E16G22    29.87F
WAUTOMA        LGT RAIN  43  40  89 E12       29.84F
WISC RAPIDS    RAIN      43  39  86 E17G25    29.79F FOG
CAMP DOUGLAS   LGT RAIN  43  43 100 SE17G23   29.75F FOG
$$

WIZ011>013-019>022-031-037>040-048>050-242000-
NORTHEAST WISCONSIN

CITY           SKY/WX    TMP DP  RH WIND       PRES   REMARKS
ANTIGO         LGT RAIN  34  34  99 E18       29.86F WCI  23
STURGEON BAY   CLOUDY    39  36  87 E10       29.99S WCI  32
GREEN BAY      CLOUDY    43  39  86 E13       29.94F
MANITOWOC      LGT RAIN  42  37  82 E18G25    29.95S
APPLETON       CLOUDY    43  36  75 E12G17    29.91F
CLINTONVILLE   CLOUDY    41  41 100 E14G21    29.91F
OSHKOSH        LGT RAIN  45  37  73 E14       29.86F
$$

WIZ032>034-041-042-053>061-242000-
SOUTHWEST WISCONSIN

CITY           SKY/WX    TMP DP  RH WIND       PRES   REMARKS
LA CROSSE      LGT RAIN  45  41  86 SE10      29.71F
SPARTA         LGT RAIN  44  41  89 E13       29.74F
VIROQUA        CLOUDY    45  45  99 E16       29.69F
BOSCOBEL       LGT RAIN  53  46  77 VRB3      29.72F
PRAIRIE DU CHI CLOUDY    53  45  74 SE12G20   29.70S
PLATTEVILLE    CLOUDY    54  45  72 S18       29.74F
$$

WIZ056-057-062-063-064-067-068-242000-
SOUTH CENTRAL WISCONSIN

CITY           SKY/WX    TMP DP  RH WIND       PRES   REMARKS
BARABOO/DELLS  LGT RAIN  46  40  77 E12G17    29.77F
LONE ROCK      LGT RAIN  52  45  77 SE14      29.74F
WATERTOWN      CLOUDY    54  38  54 SE15G28   29.79F
MADISON        LGT RAIN  52  44  74 E5        29.79S
MIDDLETON      CLOUDY    52  46  79 E3        29.79F
MONROE         RAIN      53  45  73 SE17      29.77F
JANESVILLE     CLOUDY    61  37  41 SE17G25   29.78F
$$

WIZ051-052-058>065-066-070>072-242000-
SOUTHEAST WISCONSIN

CITY           SKY/WX    TMP DP  RH WIND       PRES   REMARKS
MILWAUKEE      CLOUDY    50  33  52 SE20G30   29.87F
WAUKESHA       CLOUDY    52  34  50 SE22G35   29.84F
MILWAUKEE/TIMM PTSUNNY   52  34  50 SE23G30   29.88F
RACINE         PTSUNNY   50  34  54 SE18G28   29.88F
BURLINGTON     PTSUNNY   59  37  43 S16G26    29.81F
KENOSHA        PTSUNNY   55  32  41 SE24G31   29.84F
FOND DU LAC    LGT RAIN  46  37  71 SE17G23   29.86F
SHEBOYGAN      CLOUDY    43  37  79 E12       29.93F
WEST BEND      CLOUDY    46  32  57 E13       29.88S
JUNEAU         CLOUDY    48  35  61 E16       29.82F
$$

LSZ147-162-242000-
LAKE SUPERIOR

STATION/POSITION TIME  TEMP    WIND        PRES    WAVE
                       AIR SEA DIR/SP/G            HT/PER
                 (UTC) (F)     (DEG/KT/KT) (MB)    (FT/S)
DEVILS ISLAND    1900   33      90/ 19/ 20 1013.5F
PORT WING        1800   36      60/ 10/ 23 1011.9F
SAXON HARBOR     1800           70/  2/  7 1012.5F
$$

LMZ867-665-643>646-242000-
LAKE MICHIGAN

STATION/POSITION TIME  TEMP    WIND        PRES    WAVE
                       AIR SEA DIR/SP/G            HT/PER
                 (UTC) (F)     (DEG/KT/KT) (MB)    (FT/S)
NORTHPORT PIER   1800   36     140/  3/  5 1017.6F
SISTER BAY       1838   39      CALM  /  3   N/A
KEWAUNEE LAKESHO 1800   37      80/ 11/ 14 1016.1F
SHEBOYGAN LAKESH 1900   41      90/ 15/ 17 1014.1F
PORT WASHINGTON  1800   40     110/ 14/ 17 1013.9F
MILWAUKEE LAKESH 1900   42     110/ 17/ 19   N/A
KENOSHA   LAKESH 1900   45     120/ 22/ 25   N/A
$$

TC  - TEMPERATURE IN CELSIUS
VSB - VISIBILITY IN STATUTE MILES
WCI - WIND CHILL INDEX
HX  - HEAT INDEX




USA.gov is the U.S. government's official web portal to all federal, state and local government web resources and services.